KU4DD Weather Reports


time (UTC)temp
F
wind
direction
speed
knots
gust
knots
rain 1hr
in
rain 24hr
in
rain mn
in
humidity
%
barometer
mb
20260505200403 72 8 0.0 0.0 0.00 0.00 0.00 48 1012.5
20260505195846 72 8 0.0 0.0 0.00 0.00 0.00 47 1012.5
20260505195322 72 8 0.0 0.0 0.00 0.00 0.00 48 1012.5
20260505194808 72 8 0.0 0.0 0.00 0.00 0.00 49 1012.9
20260505194255 72 8 0.0 0.0 0.00 0.00 0.00 47 1012.9
20260505193743 72 8 0.0 0.0 0.00 0.00 0.00 49 1012.9
20260505193223 71 8 0.0 0.0 0.00 0.00 0.00 49 1012.9
20260505192710 72 8 0.0 0.0 0.00 0.00 0.00 47 1013.2
20260505192155 72 8 0.0 0.0 0.00 0.00 0.00 49 1013.2
20260505191641 72 8 0.0 0.0 0.00 0.00 0.00 48 1013.2
20260505191128 72 8 0.0 0.0 0.00 0.00 0.00 48 1013.2
20260505190612 72 8 0.0 0.0 0.00 0.00 0.00 49 1013.5
20260505185547 71 8 0.0 0.0 0.00 0.00 0.00 49 1013.5
20260505185021 71 8 0.0 0.0 0.00 0.00 0.00 49 1013.5
20260505184507 71 8 0.0 0.0 0.00 0.00 0.00 48 1013.5
20260505183958 72 8 0.0 0.0 0.00 0.00 0.00 49 1013.5
20260505183444 72 8 0.0 0.0 0.00 0.00 0.00 50 1013.5
20260505182928 71 8 0.0 0.0 0.00 0.00 0.00 49 1013.9
20260505182418 71 8 0.0 0.0 0.00 0.00 0.00 50 1013.9
20260505181915 71 8 0.0 0.0 0.00 0.00 0.00 50 1013.9
20260505181308 71 8 0.0 0.0 0.00 0.00 0.00 49 1013.9
20260505180753 71 8 0.0 0.0 0.00 0.00 0.00 48 1013.9
20260505180241 71 8 0.0 0.0 0.00 0.00 0.00 100 1013.9
20260505175734 71 8 0.0 0.0 0.00 0.00 0.00 10 1014.2
20260505175231 71 8 0.0 0.0 0.00 0.00 0.00 6 1014.2
20260505174721 71 8 0.0 0.0 0.00 0.00 0.00 100 1014.2
20260505174212 71 8 0.0 0.0 0.00 0.00 0.00 100 1014.2
20260505173656 71 8 0.0 0.0 0.00 0.00 0.00 100 1014.2
20260505173147 71 8 0.0 0.0 0.00 0.00 0.00 100 1014.2
20260505172638 71 8 0.0 0.0 0.00 0.00 0.00 100 1014.2
20260505172131 71 8 0.0 0.0 0.00 0.00 0.00 100 1014.2
20260505171622 71 8 0.0 0.0 0.00 0.00 0.00 100 1014.2
20260505171111 71 8 0.0 0.0 0.00 0.00 0.00 51 1014.6
20260505170557 71 8 0.0 0.0 0.00 0.00 0.00 52 1014.6
20260505170044 71 8 0.0 0.0 0.00 0.00 0.00 50 1014.6
20260505165531 71 8 0.0 0.0 0.00 0.00 0.00 52 1014.6
20260505165019 71 8 0.0 0.0 0.00 0.00 0.00 52 1014.6
20260505164505 71 8 0.0 0.0 0.00 0.00 0.00 50 1014.6
20260505163951 71 8 0.0 0.0 0.00 0.00 0.00 53 1014.6
20260505163427 71 8 0.0 0.0 0.00 0.00 0.00 51 1014.6
20260505162906 71 8 0.0 0.0 0.00 0.00 0.00 53 1014.6
20260505162353 71 8 0.0 0.0 0.00 0.00 0.00 51 1014.6
20260505161841 71 8 0.0 0.0 0.00 0.00 0.00 51 1014.9
20260505161331 71 8 0.0 0.0 0.00 0.00 0.00 48 1014.9
20260505160816 71 8 0.0 0.0 0.00 0.00 0.00 51 1014.9
20260505160305 72 8 0.0 0.0 0.00 0.00 0.00 49 1014.9
20260505153131 73 8 0.0 0.0 0.00 0.00 0.00 52 1015.2
20260505152620 73 8 0.0 0.0 0.00 0.00 0.00 49 1015.2
20260505152107 73 8 0.0 0.0 0.00 0.00 0.00 52 1015.2
20260505151553 73 8 0.0 0.0 0.00 0.00 0.00 50 1015.2
20260505151038 73 8 0.0 0.0 0.00 0.00 0.00 52 1015.2
20260505150526 73 8 0.0 0.0 0.00 0.00 0.00 51 1015.2
20260505140251 72 8 0.0 0.0 0.00 0.00 0.00 52 1015.2
20260505124922 71 8 0.0 0.0 0.00 0.00 0.00 51 1015.2
20260505124408 71 8 0.0 0.0 0.00 0.00 0.00 54 1015.2
20260505123857 71 8 0.0 0.0 0.00 0.00 0.00 52 1015.2
20260505123343 71 8 0.0 0.0 0.00 0.00 0.00 53 1015.2
20260505122832 71 8 0.0 0.0 0.00 0.00 0.00 54 1015.2
20260505122317 71 8 0.0 0.0 0.00 0.00 0.00 52 1015.2
20260505121807 71 8 0.0 0.0 0.00 0.00 0.00 53 1015.2
20260505121258 71 8 0.0 0.0 0.00 0.00 0.00 53 1015.2
20260505120742 71 8 0.0 0.0 0.00 0.00 0.00 51 1015.2
20260505120219 71 8 0.0 0.0 0.00 0.00 0.00 52 1015.2
20260505115707 70 8 0.0 0.0 0.00 0.00 0.00 50 1015.2
20260505115153 70 8 0.0 0.0 0.00 0.00 0.00 52 1014.9
20260505114630 70 8 0.0 0.0 0.00 0.00 0.00 52 1015.2
20260505114114 70 8 0.0 0.0 0.00 0.00 0.00 52 1014.9
20260505113602 70 8 0.0 0.0 0.00 0.00 0.00 53 1014.9
20260505113049 70 8 0.0 0.0 0.00 0.00 0.00 51 1014.9
20260505112536 70 8 0.0 0.0 0.00 0.00 0.00 53 1014.9
20260505112024 70 8 0.0 0.0 0.00 0.00 0.00 53 1014.9
20260505111510 70 8 0.0 0.0 0.00 0.00 0.00 53 1014.9
20260505110957 70 8 0.0 0.0 0.00 0.00 0.00 54 1014.9
20260505110443 70 8 0.0 0.0 0.00 0.00 0.00 51 1014.6
20260505102220 70 8 0.0 0.0 0.00 0.00 0.00 53 1014.2
20260505101710 70 8 0.0 0.0 0.00 0.00 0.00 53 1013.9
20260505101157 70 8 0.0 0.0 0.00 0.00 0.00 52 1014.2
20260505100647 70 8 0.0 0.0 0.00 0.00 0.00 53 1013.9
20260505100134 70 8 0.0 0.0 0.00 0.00 0.00 53 1014.2
20260505095610 70 8 0.0 0.0 0.00 0.00 0.00 52 1014.2
20260505095057 70 8 0.0 0.0 0.00 0.00 0.00 53 1013.9
20260505094545 70 8 0.0 0.0 0.00 0.00 0.00 52 1013.9
20260505094032 70 8 0.0 0.0 0.00 0.00 0.00 53 1013.9
20260505093517 70 8 0.0 0.0 0.00 0.00 0.00 53 1013.9
20260505092952 70 8 0.0 0.0 0.00 0.00 0.00 52 1013.9
20260505092430 70 8 0.0 0.0 0.00 0.00 0.00 52 1013.9
20260505091918 70 8 0.0 0.0 0.00 0.00 0.00 51 1013.5
20260505091403 70 8 0.0 0.0 0.00 0.00 0.00 53 1013.9
20260505090851 70 8 0.0 0.0 0.00 0.00 0.00 52 1013.9
20260505090337 70 8 0.0 0.0 0.00 0.00 0.00 52 1013.5
20260505085823 70 8 0.0 0.0 0.00 0.00 0.00 53 1013.5
20260505085315 70 8 0.0 0.0 0.00 0.00 0.00 51 1013.5
20260505084801 70 8 0.0 0.0 0.00 0.00 0.00 53 1013.5
20260505084238 70 8 0.0 0.0 0.00 0.00 0.00 52 1013.5
20260505083726 70 8 0.0 0.0 0.00 0.00 0.00 52 1013.5
20260505083217 70 8 0.0 0.0 0.00 0.00 0.00 52 1013.5
20260505082653 70 8 0.0 0.0 0.00 0.00 0.00 51 1013.5
20260505082142 70 8 0.0 0.0 0.00 0.00 0.00 52 1013.5
20260505081627 70 8 0.0 0.0 0.00 0.00 0.00 51 1013.5
20260505081114 70 8 0.0 0.0 0.00 0.00 0.00 53 1013.5
20260505080600 70 8 0.0 0.0 0.00 0.00 0.00 52 1013.5
20260505080049 70 8 0.0 0.0 0.00 0.00 0.00 51 1013.5
20260505075309 70 8 0.0 0.0 0.00 0.00 0.00 51 1013.5
20260505074756 70 8 0.0 0.0 0.00 0.00 0.00 52 1013.2
20260505074243 70 8 0.0 0.0 0.00 0.00 0.00 51 1013.5
20260505073730 71 8 0.0 0.0 0.00 0.00 0.00 51 1013.5
20260505073219 71 8 0.0 0.0 0.00 0.00 0.00 50 1013.5
20260505072708 71 8 0.0 0.0 0.00 0.00 0.00 52 1013.5
20260505072152 71 8 0.0 0.0 0.00 0.00 0.00 50 1013.5
20260505071629 70 8 0.0 0.0 0.00 0.00 0.00 51 1013.2
20260505071116 70 8 0.0 0.0 0.00 0.00 0.00 51 1013.2
20260505070603 70 8 0.0 0.0 0.00 0.00 0.00 51 1013.2
20260505070050 70 8 0.0 0.0 0.00 0.00 0.00 51 1013.2
20260505065536 71 8 0.0 0.0 0.00 0.00 0.00 49 1013.2
20260505065021 71 8 0.0 0.0 0.00 0.00 0.00 51 1013.2
20260505064513 71 8 0.0 0.0 0.00 0.00 0.00 50 1013.2
20260505064001 71 8 0.0 0.0 0.00 0.00 0.00 51 1013.2
20260505063438 71 8 0.0 0.0 0.00 0.00 0.00 51 1013.2
20260505062925 71 8 0.0 0.0 0.00 0.00 0.00 49 1013.2
20260505062412 71 8 0.0 0.0 0.00 0.00 0.00 52 1013.2
20260505061859 71 8 0.0 0.0 0.00 0.00 0.00 50 1013.2
20260505061345 71 8 0.0 0.0 0.00 0.00 0.00 52 1013.2
20260505060835 71 8 0.0 0.0 0.00 0.00 0.00 51 1013.5
20260505060321 71 8 0.0 0.0 0.00 0.00 0.00 51 1013.5
20260505055810 71 8 0.0 0.0 0.00 0.00 0.00 51 1013.5
20260505055257 71 8 0.0 0.0 0.00 0.00 0.00 49 1013.5
20260505054743 71 8 0.0 0.0 0.00 0.00 0.00 52 1013.5
20260505054230 71 8 0.0 0.0 0.00 0.00 0.00 50 1013.5
20260505053717 71 8 0.0 0.0 0.00 0.00 0.00 50 1013.5
20260505053206 71 8 0.0 0.0 0.00 0.00 0.00 50 1013.5
20260505052652 71 8 0.0 0.0 0.00 0.00 0.00 49 1013.5
20260505052140 71 8 0.0 0.0 0.00 0.00 0.00 50 1013.5
20260505051629 71 8 0.0 0.0 0.00 0.00 0.00 49 1013.5
20260505051116 72 8 0.0 0.0 0.00 0.00 0.00 49 1013.5
20260505050602 72 8 0.0 0.0 0.00 0.00 0.00 48 1013.5
20260505041354 72 8 0.0 0.0 0.00 0.00 0.00 48 1013.5
20260505040840 72 8 0.0 0.0 0.00 0.00 0.00 49 1013.5
20260505040330 72 8 0.0 0.0 0.00 0.00 0.00 49 1013.5
20260505035815 72 8 0.0 0.0 0.00 0.00 0.00 49 1013.5
20260505035252 72 8 0.0 0.0 0.00 0.00 0.00 48 1013.5
20260505034728 72 8 0.0 0.0 0.00 0.00 0.00 49 1013.5
20260505034214 72 8 0.0 0.0 0.00 0.00 0.00 48 1013.5
20260505033701 72 8 0.0 0.0 0.00 0.00 0.00 49 1013.5
20260505033149 72 8 0.0 0.0 0.00 0.00 0.00 48 1013.5
20260505032639 72 8 0.0 0.0 0.00 0.00 0.00 49 1013.5
20260505032123 72 8 0.0 0.0 0.00 0.00 0.00 48 1013.5
20260505031614 72 8 0.0 0.0 0.00 0.00 0.00 49 1013.5
20260505031101 72 8 0.0 0.0 0.00 0.00 0.00 48 1013.5
20260505030539 72 8 0.0 0.0 0.00 0.00 0.00 49 1013.5
20260505030024 72 8 0.0 0.0 0.00 0.00 0.00 48 1013.5
20260505025515 72 8 0.0 0.0 0.00 0.00 0.00 49 1013.5
20260505025001 72 8 0.0 0.0 0.00 0.00 0.00 47 1013.5
20260505024439 72 8 0.0 0.0 0.00 0.00 0.00 49 1013.5
20260505023928 72 8 0.0 0.0 0.00 0.00 0.00 47 1013.5
20260505023416 71 8 0.0 0.0 0.00 0.00 0.00 48 1013.5
20260505022902 71 8 0.0 0.0 0.00 0.00 0.00 47 1013.5
20260505022347 71 8 0.0 0.0 0.00 0.00 0.00 49 1013.5
20260505021838 71 8 0.0 0.0 0.00 0.00 0.00 48 1013.5
20260505021333 71 8 0.0 0.0 0.00 0.00 0.00 49 1013.5
20260505020812 71 8 0.0 0.0 0.00 0.00 0.00 49 1013.5
20260505020308 71 8 0.0 0.0 0.00 0.00 0.00 50 1013.5
20260505015745 71 8 0.0 0.0 0.00 0.00 0.00 49 1013.5
20260505015234 71 8 0.0 0.0 0.00 0.00 0.00 50 1013.2
20260505014729 71 8 0.0 0.0 0.00 0.00 0.00 50 1013.5
20260505014207 71 8 0.0 0.0 0.00 0.00 0.00 49 1013.2
20260505013651 71 8 0.0 0.0 0.00 0.00 0.00 50 1013.2
20260505013140 71 8 0.0 0.0 0.00 0.00 0.00 50 1013.2
20260505012626 71 8 0.0 0.0 0.00 0.00 0.00 49 1012.9
20260505012122 71 8 0.0 0.0 0.00 0.00 0.00 49 1012.9
20260505011558 71 8 0.0 0.0 0.00 0.00 0.00 48 1012.9
20260505011046 71 8 0.0 0.0 0.00 0.00 0.00 48 1012.9
20260505010534 71 8 0.0 0.0 0.00 0.00 0.00 47 1012.9
20260505010022 71 8 0.0 0.0 0.00 0.00 0.00 47 1012.9
20260505005506 71 8 0.0 0.0 0.00 0.00 0.00 47 1012.5
20260505004958 71 8 0.0 0.0 0.00 0.00 0.00 48 1012.5
20260505004452 71 8 0.0 0.0 0.00 0.00 0.00 47 1012.5
20260505003931 71 8 0.0 0.0 0.00 0.00 0.00 47 1012.2
20260505003427 71 8 0.0 0.0 0.00 0.00 0.00 48 1012.2
20260505002915 71 8 0.0 0.0 0.00 0.00 0.00 47 1012.2
20260505002352 71 8 0.0 0.0 0.00 0.00 0.00 47 1012.2
20260505001841 71 8 0.0 0.0 0.00 0.00 0.00 47 1011.9
20260505001327 71 8 0.0 0.0 0.00 0.00 0.00 47 1011.9
20260505000826 72 8 0.0 0.0 0.00 0.00 0.00 47 1011.9
20260505000302 72 8 0.0 0.0 0.00 0.00 0.00 47 1011.9
20260504235749 71 8 0.0 0.0 0.00 0.00 0.00 47 1011.9
20260504235246 72 8 0.0 0.0 0.00 0.00 0.00 46 1011.9
20260504234723 72 8 0.0 0.0 0.00 0.00 0.00 47 1011.9
20260504234212 72 8 0.0 0.0 0.00 0.00 0.00 45 1011.5
20260504233659 72 8 0.0 0.0 0.00 0.00 0.00 46 1011.5
20260504233145 72 8 0.0 0.0 0.00 0.00 0.00 45 1011.5
20260504232634 72 8 0.0 0.0 0.00 0.00 0.00 47 1011.2
20260504232119 72 8 0.0 0.0 0.00 0.00 0.00 45 1011.2
20260504231605 72 8 0.0 0.0 0.00 0.00 0.00 47 1011.2
20260504231052 72 8 0.0 0.0 0.00 0.00 0.00 47 1011.2
20260504230538 72 8 0.0 0.0 0.00 0.00 0.00 47 1011.2
20260504230025 72 8 0.0 0.0 0.00 0.00 0.00 48 1011.2
20260504225514 72 8 0.0 0.0 0.00 0.00 0.00 46 1011.2
20260504225000 72 8 0.0 0.0 0.00 0.00 0.00 48 1011.2
20260504224445 72 8 0.0 0.0 0.00 0.00 0.00 48 1011.2
20260504223933 72 8 0.0 0.0 0.00 0.00 0.00 49 1011.2
20260504223419 72 8 0.0 0.0 0.00 0.00 0.00 49 1011.2
20260504222909 72 8 0.0 0.0 0.00 0.00 0.00 48 1011.2
20260504222353 72 8 0.0 0.0 0.00 0.00 0.00 49 1011.2
20260504221845 72 8 0.0 0.0 0.00 0.00 0.00 48 1011.2
20260504221339 72 8 0.0 0.0 0.00 0.00 0.00 49 1011.2
20260504220813 72 8 0.0 0.0 0.00 0.00 0.00 48 1011.2
20260504220304 72 8 0.0 0.0 0.00 0.00 0.00 47 1011.2
20260504215800 72 8 0.0 0.0 0.00 0.00 0.00 46 1011.2
20260504215238 72 8 0.0 0.0 0.00 0.00 0.00 46 1011.2
20260504214735 72 8 0.0 0.0 0.00 0.00 0.00 46 1011.2
20260504214213 72 8 0.0 0.0 0.00 0.00 0.00 45 1011.2
20260504213657 72 8 0.0 0.0 0.00 0.00 0.00 46 1011.2
20260504213144 72 8 0.0 0.0 0.00 0.00 0.00 45 1011.2
20260504212631 72 8 0.0 0.0 0.00 0.00 0.00 47 1011.2
20260504212119 72 8 0.0 0.0 0.00 0.00 0.00 47 1011.5
20260504211616 72 8 0.0 0.0 0.00 0.00 0.00 48 1011.2
20260504211057 71 8 0.0 0.0 0.00 0.00 0.00 47 1011.5
20260504210553 71 8 0.0 0.0 0.00 0.00 0.00 48 1011.2
20260504210039 71 8 0.0 0.0 0.00 0.00 0.00 45 1011.2
20260504205527 71 8 0.0 0.0 0.00 0.00 0.00 48 1011.2
20260504205015 71 8 0.0 0.0 0.00 0.00 0.00 49 1011.2
20260504204501 72 8 0.0 0.0 0.00 0.00 0.00 46 1011.2
20260504203948 72 8 0.0 0.0 0.00 0.00 0.00 48 1011.5
20260504203438 72 8 0.0 0.0 0.00 0.00 0.00 47 1011.5
20260504202922 72 8 0.0 0.0 0.00 0.00 0.00 48 1011.9
20260504202401 72 8 0.0 0.0 0.00 0.00 0.00 47 1011.9
20260504201845 72 8 0.0 0.0 0.00 0.00 0.00 45 1011.5
20260504201320 72 8 0.0 0.0 0.00 0.00 0.00 48 1011.9
20260504200811 72 8 0.0 0.0 0.00 0.00 0.00 47 1011.9